User: anonymous   Login
Location: Anton
(37.3520°N, 87.3947°W)
Time: 02:48:21
(UTC+00:00)
Language:

BlueWalker 3 - Orbit

View from above orbital plane
View from above orbital plane
View from above satellite
View from above satellite

Ground track
Ground track

The orbit data is extracted from the following two-line orbital elements,

1 53807U 22111AL  24061.14407227  .00005881  00000-0  25038-3 0  9993
2 53807  53.2416 330.8147 0010281 122.2388 237.9609 15.24363782 81747
Epoch (UTC): 01 March 2024 03:27:27
Eccentricity: 0.0010281
inclination: 53.2416°
perigee height: 485 km
apogee height: 500 km
right ascension of ascending node: 330.8147°
argument of perigee: 122.2388°
revolutions per day: 15.24363782
mean anomaly at epoch: 237.9609°
orbit number at epoch: 8174

The dashed part of the orbit path shows where the satellite is in the earth's shadow,  

DLR